FW7924 Weather Reports


Display with metric or nautical units.
time (UTC)temp
F
wind
direction
speed
MPH
gust
MPH
rain 1hr
in
rain 24hr
in
rain mn
in
humidity
%
barometer
mb
20260510192103 68 208 5.0 5.0 0.00 0.00 0.00 70 1014.2
20260510191600 69 194 3.0 3.0 0.00 0.00 0.00 69 1013.9
20260510191057 68 225 3.0 8.0 0.00 0.00 0.00 70 1014.0
20260510190554 68 198 1.0 2.0 0.00 0.00 0.00 71 1013.6
20260510190051 68 200 1.0 5.0 0.00 0.00 0.00 70 1014.0
20260510185548 68 195 1.0 3.0 0.00 0.00 0.00 71 1013.8
20260510185040 68 198 0.0 3.0 0.00 0.00 0.00 69 1014.0
20260510184537 69 196 5.0 9.0 0.00 0.00 0.00 67 1014.1
20260510184032 69 301 3.0 5.0 0.00 0.00 0.00 67 1014.1
20260510183528 70 238 1.0 2.0 0.00 0.00 0.00 68 1014.2
20260510183023 70 212 2.0 7.0 0.00 0.00 0.00 67 1014.4
20260510182520 69 201 3.0 7.0 0.00 0.00 0.00 68 1014.1
20260510182021 70 296 3.0 7.0 0.00 0.00 0.00 67 1014.0
20260510181519 70 228 7.0 9.0 0.00 0.00 0.00 67 1014.1
20260510181015 69 308 2.0 6.0 0.00 0.00 0.00 69 1014.2
20260510180512 70 165 0.0 5.0 0.00 0.00 0.00 68 1014.2
20260510180010 70 204 3.0 5.0 0.00 0.00 0.00 68 1014.1
20260510175504 69 201 2.0 3.0 0.00 0.00 0.00 70 1014.2
20260510175001 68 185 0.0 5.0 0.00 0.00 0.00 72 1014.3
20260510174459 68 213 3.0 6.0 0.00 0.00 0.00 70 1014.3
20260510173955 69 226 1.0 9.0 0.00 0.00 0.00 70 1014.4
20260510173451 70 257 2.0 3.0 0.00 0.00 0.00 68 1014.0
20260510172948 69 210 1.0 2.0 0.00 0.00 0.00 69 1013.9
20260510172443 69 211 2.0 2.0 0.00 0.00 0.00 68 1013.8
20260510171940 68 154 0.0 1.0 0.00 0.00 0.00 70 1013.8
20260510171437 68 154 1.0 3.0 0.00 0.00 0.00 69 1014.0
20260510170934 68 253 1.0 6.0 0.00 0.00 0.00 72 1014.1
20260510170430 68 195 1.0 2.0 0.00 0.00 0.00 70 1014.1
20260510165926 68 186 2.0 7.0 0.00 0.00 0.00 71 1014.2
20260510165422 67 169 1.0 5.0 0.00 0.00 0.00 71 1014.4
20260510164919 67 197 2.0 6.0 0.00 0.00 0.00 73 1014.2
20260510164417 68 207 4.0 5.0 0.00 0.00 0.00 73 1014.4
20260510163917 67 295 2.0 3.0 0.00 0.00 0.00 72 1014.2
20260510163413 66 311 1.0 7.0 0.00 0.00 0.00 73 1014.5
20260510162907 66 143 0.0 5.0 0.00 0.00 0.00 77 1014.5
20260510162405 65 262 1.0 5.0 0.00 0.00 0.00 77 1014.5
20260510161901 64 222 3.0 5.0 0.00 0.00 0.00 79 1014.6
20260510161356 64 159 1.0 2.0 0.00 0.00 0.00 78 1014.7
20260510160853 64 181 2.0 2.0 0.00 0.00 0.00 79 1014.4
20260510160351 64 206 1.0 3.0 0.00 0.00 0.00 79 1014.2
20260510155844 63 170 1.0 5.0 0.00 0.00 0.00 80 1014.4
20260510155341 64 185 1.0 2.0 0.00 0.00 0.00 80 1014.4
20260510154837 63 150 1.0 1.0 0.00 0.00 0.00 81 1014.5
20260510154333 63 192 2.0 7.0 0.00 0.00 0.00 80 1014.9
20260510153828 63 239 2.0 3.0 0.00 0.00 0.00 80 1014.6
20260510153324 62 179 1.0 1.0 0.00 0.00 0.00 81 1014.7
20260510152821 63 181 2.0 2.0 0.00 0.00 0.00 80 1014.7
20260510152318 64 171 1.0 2.0 0.00 0.00 0.00 80 1014.8
20260510151814 64 173 1.0 1.0 0.00 0.00 0.00 80 1014.9
20260510151312 64 158 1.0 3.0 0.00 0.00 0.00 79 1014.9
20260510150808 63 164 1.0 6.0 0.00 0.00 0.00 79 1014.8
20260510150303 63 152 0.0 1.0 0.00 0.00 0.00 81 1014.8
20260510145800 64 151 2.0 2.0 0.00 0.00 0.00 79 1014.8
20260510145257 63 173 2.0 2.0 0.00 0.00 0.00 82 1014.8
20260510144753 63 144 1.0 3.0 0.00 0.00 0.00 80 1014.7
20260510144250 62 172 2.0 2.0 0.00 0.00 0.00 79 1014.7
20260510143749 62 160 0.0 2.0 0.00 0.00 0.00 81 1015.0
20260510143246 62 166 0.0 1.0 0.00 0.00 0.00 80 1014.5
20260510142743 61 170 1.0 2.0 0.00 0.00 0.00 82 1014.4
20260510142240 61 171 0.0 1.0 0.00 0.00 0.00 83 1014.6
20260510141737 60 172 1.0 1.0 0.00 0.00 0.00 83 1014.8
20260510141235 59 173 1.0 2.0 0.00 0.00 0.00 85 1014.8
20260510140731 58 173 0.0 0.0 0.00 0.00 0.00 87 1014.6
20260510140226 57 174 0.0 1.0 0.00 0.00 0.00 88 1014.6
20260510135720 57 173 2.0 3.0 0.00 0.00 0.00 89 1014.6
20260510135216 56 132 0.0 0.0 0.00 0.00 0.00 91 1014.6
20260510134714 56 131 0.0 0.0 0.00 0.00 0.00 92 1014.7
20260510134211 55 131 0.0 0.0 0.00 0.00 0.00 92 1014.7
20260510133707 55 132 0.0 0.0 0.00 0.00 0.00 93 1014.7
20260510133202 55 132 0.0 0.0 0.00 0.00 0.00 94 1014.6
20260510132659 55 132 0.0 0.0 0.00 0.00 0.00 95 1014.4
20260510132156 54 133 0.0 0.0 0.00 0.00 0.00 95 1014.4
20260510131654 54 133 0.0 0.0 0.00 0.00 0.00 96 1014.8
20260510131151 54 134 0.0 0.0 0.00 0.00 0.00 97 1014.9
20260510130647 54 133 0.0 0.0 0.00 0.00 0.00 97 1014.6
20260510130144 54 136 0.0 0.0 0.00 0.00 0.00 97 1014.6
20260510125641 53 138 0.0 0.0 0.00 0.00 0.00 98 1014.7
20260510125137 53 134 0.0 0.0 0.00 0.00 0.00 98 1014.7
20260510124634 53 136 0.0 0.0 0.00 0.00 0.00 98 1014.6
20260510124131 53 136 0.0 0.0 0.00 0.00 0.00 98 1014.4
20260510123626 53 137 0.0 0.0 0.00 0.00 0.00 98 1014.3
20260510123123 53 139 0.0 0.0 0.00 0.00 0.00 99 1014.5
20260510122619 53 137 0.0 0.0 0.00 0.00 0.00 99 1014.4
20260510122114 53 143 1.0 1.0 0.00 0.00 0.00 99 1014.5
20260510121612 52 136 0.0 0.0 0.00 0.00 0.00 99 1014.3
20260510121109 52 145 0.0 1.0 0.00 0.00 0.00 99 1014.4
20260510120607 52 146 1.0 2.0 0.00 0.00 0.00 99 1014.1
20260510115559 52 136 0.0 0.0 0.00 0.00 0.00 99 1014.2
20260510115056 52 136 0.0 0.0 0.00 0.00 0.00 99 1014.0
20260510114551 51 137 0.0 0.0 0.00 0.00 0.00 99 1013.9
20260510114048 51 137 0.0 0.0 0.00 0.00 0.00 99 1014.1
20260510113543 51 137 0.0 0.0 0.00 0.00 0.00 99 1013.9
20260510113041 51 153 0.0 2.0 0.00 0.00 0.00 99 1013.7
20260510112537 51 135 0.0 0.0 0.00 0.00 0.00 99 1013.6
20260510112034 51 139 0.0 0.0 0.00 0.00 0.00 99 1013.6
20260510111531 51 149 0.0 1.0 0.00 0.00 0.00 99 1013.8
20260510111027 51 131 0.0 0.0 0.00 0.00 0.00 99 1013.7
20260510110523 50 129 0.0 0.0 0.00 0.00 0.00 99 1013.7
20260510110020 51 124 0.0 0.0 0.00 0.00 0.00 99 1013.7
20260510105515 51 123 0.0 0.0 0.00 0.00 0.00 99 1013.6
20260510105010 51 123 0.0 0.0 0.00 0.00 0.00 99 1013.7
20260510104507 51 123 0.0 0.0 0.00 0.00 0.00 99 1013.6
20260510104003 50 122 0.0 0.0 0.00 0.00 0.00 99 1013.6
20260510103500 50 122 0.0 0.0 0.00 0.00 0.00 99 1013.6
20260510102956 50 124 0.0 0.0 0.00 0.00 0.00 99 1013.5
20260510102452 50 122 0.0 0.0 0.00 0.00 0.00 99 1013.4
20260510101948 50 118 0.0 0.0 0.00 0.00 0.00 99 1013.5
20260510101446 50 117 0.0 0.0 0.00 0.00 0.00 99 1013.4
20260510100945 50 117 0.0 0.0 0.00 0.00 0.00 99 1013.2
20260510100440 50 121 0.0 0.0 0.00 0.00 0.00 99 1013.5
20260510095937 50 120 0.0 0.0 0.00 0.00 0.00 99 1013.3
20260510095433 50 118 0.0 0.0 0.00 0.00 0.00 99 1013.4
20260510094932 50 116 0.0 0.0 0.00 0.00 0.00 99 1013.4
20260510094426 50 114 0.0 0.0 0.00 0.00 0.00 99 1013.5
20260510093923 50 146 0.0 0.0 0.00 0.00 0.00 99 1013.8
20260510093418 50 154 0.0 0.0 0.00 0.00 0.00 99 1013.4
20260510092915 50 138 0.0 0.0 0.00 0.00 0.00 99 1013.6
20260510092413 50 139 0.0 0.0 0.00 0.00 0.00 99 1013.4
20260510091913 50 139 0.0 0.0 0.00 0.00 0.00 99 1013.4
20260510091410 50 140 0.0 0.0 0.00 0.00 0.00 99 1013.5
20260510090906 50 140 0.0 0.0 0.00 0.00 0.00 99 1013.4
20260510090403 50 140 0.0 0.0 0.00 0.00 0.00 99 1013.7
20260510085859 50 141 0.0 0.0 0.00 0.00 0.00 99 1013.7
20260510085354 50 142 0.0 0.0 0.00 0.00 0.00 99 1013.8
20260510084849 50 142 0.0 0.0 0.00 0.00 0.00 99 1013.7
20260510084348 50 143 0.0 0.0 0.00 0.00 0.00 99 1013.7
20260510083844 50 146 0.0 0.0 0.00 0.00 0.00 99 1013.6
20260510083340 50 144 0.0 0.0 0.00 0.00 0.00 99 1013.7
20260510082836 50 145 0.0 0.0 0.00 0.00 0.00 99 1013.8
20260510082334 51 153 0.0 0.0 0.00 0.00 0.00 99 1013.9
20260510081832 50 164 0.0 0.0 0.00 0.00 0.00 99 1013.7
20260510081328 50 168 0.0 0.0 0.00 0.00 0.00 99 1013.6
20260510080825 51 326 1.0 2.0 0.00 0.00 0.00 99 1013.7
20260510080319 51 341 1.0 1.0 0.00 0.00 0.00 99 1013.8
20260510075817 51 121 0.0 1.0 0.00 0.00 0.00 99 1013.5
20260510075314 51 138 0.0 0.0 0.00 0.00 0.00 99 1013.4
20260510074811 51 137 0.0 0.0 0.00 0.00 0.00 99 1013.3
20260510074308 51 137 0.0 0.0 0.00 0.00 0.00 99 1013.2
20260510073803 51 138 0.0 0.0 0.00 0.00 0.00 99 1013.3
20260510073300 51 138 0.0 0.0 0.00 0.00 0.00 99 1013.1
20260510072755 51 138 0.0 0.0 0.00 0.00 0.00 99 1013.3
20260510072252 51 138 0.0 0.0 0.00 0.00 0.00 99 1013.5
20260510071749 51 138 0.0 0.0 0.00 0.00 0.00 99 1013.2
20260510071246 51 138 0.0 0.0 0.00 0.00 0.00 99 1013.4
20260510070744 51 138 0.0 0.0 0.00 0.00 0.00 99 1013.2
20260510070241 51 138 0.0 0.0 0.00 0.00 0.00 99 1013.3
20260510065735 51 138 0.0 2.0 0.00 0.00 0.00 99 1013.0
20260510065232 51 133 0.0 0.0 0.00 0.00 0.00 99 1013.2
20260510064728 51 133 0.0 0.0 0.00 0.00 0.00 99 1013.3
20260510064226 51 155 1.0 1.0 0.00 0.00 0.00 99 1013.3
20260510063723 51 138 0.0 2.0 0.00 0.00 0.00 99 1013.2
20260510063219 51 146 0.0 2.0 0.00 0.00 0.00 99 1013.3
20260510062716 51 137 0.0 0.0 0.00 0.00 0.00 99 1013.5
20260510062212 51 136 0.0 0.0 0.00 0.00 0.00 99 1013.2
20260510061707 51 136 0.0 0.0 0.00 0.00 0.00 99 1013.1
20260510061204 51 136 0.0 0.0 0.00 0.00 0.00 99 1012.8
20260510060701 51 136 0.0 0.0 0.00 0.00 0.00 99 1012.8
20260510060157 51 136 0.0 0.0 0.00 0.00 0.00 99 1012.7
20260510055654 51 136 0.0 0.0 0.00 0.00 0.00 99 1013.0
20260510055152 51 136 0.0 0.0 0.00 0.00 0.00 99 1013.1
20260510054647 51 136 0.0 0.0 0.00 0.00 0.00 99 1013.2
20260510054143 51 136 0.0 0.0 0.00 0.00 0.00 99 1013.1
20260510053642 51 136 0.0 0.0 0.00 0.00 0.00 99 1013.1
20260510053139 51 136 0.0 0.0 0.00 0.00 0.00 99 1013.3
20260510052635 51 136 0.0 0.0 0.00 0.00 0.00 99 1013.1
20260510052131 51 136 0.0 0.0 0.00 0.00 0.00 99 1013.1
20260510051627 51 136 0.0 0.0 0.00 0.00 0.00 99 1013.1
20260510051124 51 138 0.0 0.0 0.00 0.00 0.00 99 1013.0
20260510050621 51 138 0.0 0.0 0.00 0.00 0.00 99 1013.0
20260510050118 51 137 0.0 0.0 0.00 0.00 0.00 99 1013.2
20260510045615 51 126 0.0 0.0 0.00 0.00 0.00 99 1013.2
20260510045111 51 126 0.0 0.0 0.00 0.00 0.00 99 1013.1
20260510044608 51 126 0.0 0.0 0.00 0.00 0.00 99 1013.1
20260510044105 51 126 0.0 0.0 0.00 0.00 0.00 99 1013.0
20260510043600 51 126 0.0 0.0 0.00 0.00 0.00 99 1013.0
20260510043057 51 126 0.0 0.0 0.00 0.00 0.00 99 1012.9
20260510042555 52 126 0.0 0.0 0.00 0.00 0.00 99 1013.4
20260510042051 52 126 0.0 0.0 0.00 0.00 0.00 99 1013.2
20260510041548 52 126 0.0 0.0 0.00 0.00 0.00 99 1013.3
20260510041046 52 126 0.0 0.0 0.00 0.00 0.00 99 1013.0
20260510040542 52 126 0.0 0.0 0.00 0.00 0.00 99 1012.9
20260510040038 52 125 0.0 0.0 0.00 1.04 1.04 99 1012.7
20260510035535 52 125 0.0 0.0 0.00 1.04 1.04 99 1012.8
20260510035034 52 125 0.0 0.0 0.00 1.04 1.04 99 1012.8
20260510034533 52 125 0.0 0.0 0.00 1.04 1.04 99 1013.0
20260510034029 52 124 0.0 0.0 0.00 1.04 1.04 99 1013.0
20260510033525 52 132 0.0 0.0 0.00 1.04 1.04 99 1012.9
20260510033023 52 133 0.0 0.0 0.00 1.04 1.04 99 1012.8
20260510032519 52 135 0.0 0.0 0.00 1.04 1.04 99 1013.2
20260510032015 52 136 0.0 0.0 0.00 1.04 1.04 99 1013.2
20260510031510 52 139 0.0 1.0 0.00 1.04 1.04 99 1013.3
20260510031006 52 133 0.0 0.0 0.00 1.04 1.04 99 1013.2
20260510030502 52 132 0.0 0.0 0.00 1.04 1.04 99 1013.4
20260510025959 52 133 0.0 0.0 0.00 1.04 1.04 99 1013.2
20260510025456 52 129 0.0 0.0 0.00 1.04 1.04 99 1013.1
20260510024954 52 130 0.0 0.0 0.00 1.04 1.04 99 1013.0
20260510024450 52 130 0.0 0.0 0.00 1.04 1.04 99 1013.2
20260510023946 52 130 0.0 0.0 0.00 1.04 1.04 99 1013.0
20260510023443 52 129 0.0 0.0 0.00 1.04 1.04 99 1012.8
20260510022939 52 130 0.0 0.0 0.00 1.04 1.04 99 1012.8
20260510022438 51 130 0.0 0.0 0.00 1.04 1.04 99 1013.0
20260510021938 51 130 0.0 0.0 0.00 1.04 1.04 99 1013.0
20260510021436 51 130 0.0 0.0 0.00 1.04 1.04 99 1012.9
20260510020933 51 130 0.0 0.0 0.00 1.04 1.04 99 1013.1
20260510020433 52 130 0.0 0.0 0.00 1.04 1.04 99 1013.0
20260510015929 52 129 0.0 0.0 0.00 1.04 1.04 99 1013.0
20260510015425 52 132 0.0 0.0 0.00 1.04 1.04 99 1013.1
20260510014920 52 132 0.0 0.0 0.00 1.04 1.04 99 1012.9
20260510014418 52 133 0.0 0.0 0.00 1.04 1.04 99 1013.1
20260510013914 52 123 0.0 0.0 0.00 1.04 1.04 99 1013.0
20260510013409 52 124 0.0 0.0 0.00 1.04 1.04 99 1013.0
20260510012904 52 123 0.0 0.0 0.00 1.04 1.04 98 1013.1
20260510012400 52 123 0.0 0.0 0.00 1.04 1.04 98 1013.1
20260510011854 52 125 0.0 0.0 0.00 1.04 1.04 98 1012.9
20260510011350 52 125 0.0 0.0 0.00 1.04 1.04 98 1012.7
20260510010846 52 125 0.0 0.0 0.00 1.04 1.04 98 1012.9
20260510010344 53 125 0.0 0.0 0.00 1.04 1.04 98 1012.9
20260510005840 53 125 0.0 0.0 0.00 1.04 1.04 98 1012.6
20260510005337 53 125 0.0 0.0 0.00 1.04 1.04 98 1012.7
20260510004834 53 125 0.0 0.0 0.00 1.04 1.04 98 1012.5
20260510004332 52 125 0.0 0.0 0.00 1.04 1.04 98 1012.4
20260510003829 52 125 0.0 0.0 0.00 1.04 1.04 98 1012.5
20260510003326 53 125 0.0 0.0 0.00 1.04 1.04 98 1012.2
20260510002825 53 125 0.0 0.0 0.00 1.04 1.04 98 1012.3
20260510002322 53 125 0.0 0.0 0.00 1.04 1.04 98 1012.2
20260510001818 53 125 0.0 0.0 0.00 1.04 1.04 98 1012.4
20260510001317 53 125 0.0 0.0 0.00 1.04 1.04 98 1012.2
20260510000812 53 124 0.0 0.0 0.00 1.04 1.04 98 1012.2
20260510000311 53 124 0.0 0.0 0.00 1.04 1.04 98 1012.4
20260509235807 53 122 0.0 0.0 0.00 1.04 1.04 98 1012.3
20260509235306 53 122 0.0 0.0 0.00 1.04 1.04 98 1012.4
20260509234759 53 122 0.0 0.0 0.00 1.04 1.04 98 1012.3
20260509234256 53 122 0.0 0.0 0.00 1.04 1.04 98 1012.2
20260509233755 53 122 0.0 0.0 0.00 1.04 1.04 98 1012.5
20260509233252 53 122 0.0 0.0 0.00 1.04 1.04 98 1012.2
20260509232748 53 122 0.0 0.0 0.00 1.04 1.04 98 1012.5
20260509232245 53 122 0.0 0.0 0.00 1.04 1.04 98 1012.4
20260509231741 53 122 0.0 0.0 0.00 1.04 1.04 98 1012.4
20260509231238 53 122 0.0 0.0 0.00 1.04 1.04 98 1012.5
20260509230736 53 121 0.0 0.0 0.05 1.04 1.04 98 1012.5
20260509230233 53 121 0.0 0.0 0.05 1.04 1.04 98 1012.6
20260509225728 53 128 0.0 0.0 0.07 1.03 1.03 98 1012.8
20260509225224 53 128 0.0 0.0 0.14 1.03 1.03 98 1012.9
20260509224720 53 128 0.0 0.0 0.12 1.02 1.02 98 1012.8
20260509224217 53 128 0.0 0.0 0.12 1.01 1.01 98 1012.9
20260509223714 53 128 0.0 0.0 0.19 1.00 1.00 98 1013.0
20260509223211 53 128 0.0 0.0 0.12 0.98 0.98 98 1012.9
20260509222708 53 128 0.0 0.0 0.12 0.97 0.97 98 1013.0
20260509222203 53 128 0.0 0.0 0.12 0.96 0.96 98 1013.0
20260509221659 53 129 0.0 0.0 0.17 0.95 0.95 97 1013.0
20260509221155 53 128 0.0 0.0 0.12 0.93 0.93 97 1012.9
20260509220652 54 130 0.0 0.0 0.12 0.92 0.92 98 1013.0
20260509220148 54 143 0.0 2.0 0.12 0.91 0.91 97 1013.2
20260509215644 54 131 0.0 1.0 0.19 0.90 0.90 97 1013.2
20260509215141 54 130 0.0 0.0 0.17 0.88 0.88 97 1013.4
20260509214638 54 129 0.0 0.0 0.05 0.86 0.86 97 1013.4
20260509214135 54 130 0.0 0.0 0.07 0.85 0.85 97 1013.6
20260509213631 54 130 0.0 0.0 0.12 0.85 0.85 97 1013.3
20260509213127 54 130 0.0 0.0 0.05 0.84 0.84 97 1013.1
20260509212625 54 128 0.0 0.0 0.00 0.83 0.83 97 1013.4
20260509212122 54 128 0.0 0.0 0.07 0.83 0.83 97 1013.1
20260509211617 54 129 0.0 0.0 0.07 0.83 0.83 97 1013.1
20260509211114 54 129 0.0 1.0 0.00 0.82 0.82 97 1013.0
20260509210611 54 127 0.0 0.0 0.00 0.82 0.82 97 1012.9
20260509210108 54 126 0.0 0.0 0.00 0.82 0.82 97 1012.7
20260509205602 54 125 0.0 0.0 0.00 0.82 0.82 97 1012.9
20260509205057 54 125 0.0 0.0 0.00 0.82 0.82 97 1012.8
20260509204554 54 121 0.0 0.0 0.05 0.82 0.82 97 1012.7
20260509204051 54 128 0.0 0.0 0.07 0.81 0.81 97 1012.4
20260509203546 54 132 0.0 0.0 0.12 0.81 0.81 97 1013.2
20260509203045 54 143 0.0 1.0 0.12 0.80 0.80 97 1013.3
20260509202539 54 159 1.0 3.0 0.07 0.79 0.79 97 1013.5
20260509202035 54 133 0.0 0.0 0.07 0.78 0.78 97 1013.0
20260509201530 54 147 0.0 2.0 0.12 0.78 0.78 97 1013.2
20260509201028 54 144 0.0 0.0 0.12 0.77 0.77 97 1013.5
20260509200527 54 130 0.0 0.0 0.19 0.76 0.76 97 1013.4
20260509200024 54 130 0.0 0.0 0.17 0.75 0.75 96 1013.7
20260509195520 54 130 0.0 0.0 0.12 0.73 0.73 96 1013.8
20260509195019 54 129 0.0 0.0 0.12 0.72 0.72 96 1013.3
20260509194515 54 129 0.0 0.0 0.17 0.71 0.71 96 1013.2
20260509194012 54 129 0.0 0.0 0.19 0.70 0.70 96 1013.3
20260509193507 54 129 0.0 0.0 0.12 0.68 0.68 96 1013.2
20260509193004 54 131 0.0 0.0 0.12 0.67 0.67 96 1013.2